Location: Hodgson Observatory
(42.9992°N, 96.7577°W)
Time: 12:13:33
(UTC-06:00)

Daily predictions for brighter satellites

Satellite Brightness Start Highest point End
(mag) Time Altitude Azimuth Time Altitude Azimuth Time Altitude Azimuth
Lacrosse 5 3.7 17:50:22 10° WNW 17:53:54 19° NNW 17:57:27 10° NNE
Meteor 2-2 Rocket 4.4 17:51:18 10° N 17:56:58 85° W 18:02:37 10° S
Cosmos 2228 Rocket 3.7 17:55:01 10° NNW 17:59:23 63° W 18:03:47 10° S
Cosmos 1844 4.4 17:54:08 10° NNW 17:59:51 64° WSW 18:05:34 10° S
Cosmos 2279 Rocket 4.2 17:57:37 10° N 18:03:37 48° ENE 18:09:36 10° SSE
Cosmos 1328 Rocket 4.5 18:02:01 10° NNW 18:06:23 55° W 18:10:43 10° S
Cosmos 1743 Rocket 4.2 18:02:47 10° SSW 18:07:13 62° W 18:11:40 10° N
CZ-2C R/B 3.0 18:04:24 10° S 18:09:18 61° WSW 18:14:05 10° NNW
Cosmos 1300 2.6 18:06:09 10° N 18:10:00 76° E 18:13:50 10° SSE
Cosmos 1151 Rocket 2.9 18:06:03 10° N 18:10:20 81° E 18:14:39 10° S
Meteor 1-27 4.4 18:05:03 10° N 18:10:48 58° ENE 18:16:33 10° SSE
Cosmos 2237 Rocket 2.2 18:05:31 10° SSW 18:11:08 80° ESE 18:16:49 10° NNE
Cosmos 2369 Rocket 4.0 18:12:26 10° NNE 18:13:38 11° NE 18:14:50 10° NE
Transit 2A Rocket 4.4 18:09:58 10° NNW 18:14:19 83° ENE 18:18:38 10° SSE
Lacrosse 4 Rocket 2.9 18:13:46 10° N 18:16:29 17° NE 18:18:27 13° E
Cosmos 1515 Rocket 4.4 18:13:52 10° NNW 18:18:15 56° W 18:22:34 10° S
CENTAUR R/B 3.7 18:12:33 10° WSW 18:18:21 39° NW 18:24:54 10° NNE
SL-16 R/B 2.7 18:13:43 10° S 18:18:56 40° ESE 18:24:11 10° NE
COSMOS 2428 4.3 18:14:02 10° WSW 18:19:10 33° NW 18:24:19 10° N
Cosmos 44 3.6 18:14:21 10° SW 18:19:36 74° NW 18:24:38 10° NNE
SL-14 R/B 3.2 18:15:46 10° S 18:19:41 83° E 18:23:42 10° N
Cosmos 1125 Rocket 4.0 18:14:34 10° NNW 18:19:44 66° WSW 18:24:52 10° S
COSMOS 2441 4.4 18:15:32 10° SSE 18:20:24 86° WSW 18:25:16 10° NNW
Cosmos 1340 Rocket 3.0 18:17:23 10° S 18:21:11 48° E 18:24:59 10° NNE
Cosmos 1484 Rocket 2.7 18:18:22 10° SSE 18:22:18 79° ENE 18:26:19 10° N
Cosmos 1805 Rocket 4.0 18:21:33 10° SSE 18:25:45 42° E 18:29:58 10° NNE
ALOS 3.6 18:22:33 10° ESE 18:25:46 19° ENE 18:29:00 10° NNE
SKYMED 2 3.6 18:21:50 10° NNE 18:26:09 60° E 18:30:25 10° S
Cosmos 1184 Rocket 4.3 18:24:35 10° SE 18:27:00 19° E 18:27:43 18° ENE
Cosmos 2297 3.7 18:24:33 10° NNW 18:30:15 65° ENE 18:35:56 10° SE
Cosmos 2180 Rocket 4.5 18:24:30 10° N 18:30:39 64° E 18:36:48 10° SSE
Meteor 2-10 4.0 18:26:57 10° N 18:32:05 85° E 18:37:21 10° S
Thor Agena Rocket 4.1 18:27:39 10° N 18:32:51 63° WNW 18:37:56 10° SSW
Cosmos 2058 2.8 18:30:40 10° S 18:34:46 90° W 18:38:54 10° N
Meteor 1-28 Rocket 3.3 18:31:11 10° NNE 18:34:48 50° E 18:38:26 10° S
Cosmos 1869 4.5 18:32:17 10° NNE 18:35:28 22° ENE 18:38:39 10° SE
Iridium 4 Rocket 4.2 18:33:28 10° SE 18:36:50 21° E 18:38:17 18° NE
Cosmos 1461 2.9 18:34:02 10° SSW 18:38:10 61° ESE 18:41:08 18° NE
Sich 1 3.5 18:36:46 10° SSE 18:40:54 39° E 18:45:03 10° NNE
Cosmos 1538 Rocket 4.2 18:36:39 10° S 18:41:45 50° ESE 18:46:55 10° NNE
Cosmos 1633 Rocket 3.4 18:45:40 10° SSE 18:49:50 43° E 18:53:52 11° NNE
Abrixas 2.8 18:47:05 10° W 18:49:57 52° NNW 18:50:53 34° NE
FENGYUN 3A 4.2 18:46:08 10° SE 18:50:55 34° ENE 18:55:43 10° N
METEOR-M 4.1 18:48:11 10° SSE 18:53:28 66° ENE 18:58:48 10° N
BREEZE-M DEB (TANK) 1.7 18:51:22 10° WSW 18:53:49 50° NNW 18:54:14 42° NNE
FAST Rocket 3.8 18:52:38 10° S 18:55:11 63° E 18:56:11 34° NNE
Cosmos 1356 Rocket 3.2 18:51:39 10° S 18:55:36 65° E 18:59:17 12° NNE
SL-19 R/B 4.5 18:53:17 10° SE 18:58:52 49° ENE 19:04:14 10° N
FREGAT/IRIS 2.6 18:57:05 10° SSE 19:00:05 57° ENE 19:03:06 10° N
Aureole 1 Rocket 4.1 18:55:07 10° S 19:00:19 50° E 19:07:07 10° NNE
Lacrosse 5 rocket 3.2 18:57:54 10° WNW 19:01:14 29° SW 19:04:42 10° S
Aureole 2 Rocket 4.1 18:58:29 10° SW 19:02:03 38° WNW 19:05:55 10° N
ATLAS 5 CENTAUR R/B 3.9 19:01:28 10° N 19:05:00 16° NNE 19:05:22 16° NNE
NOAA 12 4.0 19:00:26 10° SSE 19:05:41 90° SW 19:10:59 10° NNW
Cosmos 1626 2.2 19:05:43 10° SSW 19:09:27 77° W 19:12:55 12° N
Cosmos 1707 Rocket 3.9 19:09:25 10° NNW 19:13:43 65° W 19:18:00 10° S
COSMO-SKYMED 1 3.9 19:10:02 10° N 19:14:07 40° WNW 19:18:10 10° SW
Cosmos 2219 Rocket 4.4 19:14:40 10° W 19:18:53 21° NW 19:23:07 10° N
Cosmos 773 Rocket 3.8 19:14:24 10° S 19:19:32 73° ESE 19:22:21 27° NNE
FengYun 1-2 T 4.1 19:15:11 10° SSE 19:20:41 65° ENE 19:26:09 10° N
Cosmos 2333 Rocket 4.1 19:17:15 10° WSW 19:21:51 25° NW 19:26:28 10° N
Cosmos 1943 Rocket 4.1 19:19:49 10° N 19:21:01 13° NNE 19:21:01 13° NNE
Cosmos 1603 3.8 19:18:11 10° S 19:23:34 49° ESE 19:24:34 44° ENE
Cosmos 1666 Rocket 4.0 19:20:46 10° SSW 19:25:04 62° W 19:29:26 10° N
Cosmos 1455 2.8 19:22:10 10° NNW 19:25:55 57° W 19:29:40 10° S
Resurs 01 Rocket 1.5 19:26:51 38° SE 19:28:27 68° ENE 19:32:53 10° N
USA 215 3.2 19:24:57 22° SE 19:29:26 89° SW 19:36:01 10° NW
SJ-6B 3.5 19:25:33 10° S 19:29:35 58° W 19:33:40 10° NNW
ATLAS 3B R/B 4.4 19:26:38 10° NNW 19:30:33 15° NNE 19:31:30 15° NNE
CZ-4C R/B 4.1 19:30:56 10° NNW 19:35:48 21° NNE 19:35:48 21° NNE
Cosmos 1933 Rocket 4.4 19:32:13 10° S 19:34:57 36° SSE 19:34:57 36° SSE
Lacrosse 5 3.7 19:35:06 10° NNW 19:38:18 18° N 19:38:18 18° N
Cosmos 1655 Rocket 4.5 19:32:52 10° SSE 19:37:30 40° SE 19:37:30 40° SE
Cosmos 1627 Rocket 4.3 19:38:08 10° S 19:44:14 66° E 19:46:59 34° NNE
Lacrosse 4 Rocket 2.2 19:51:33 10° NW 19:54:54 47° W 19:54:54 47° W
Cosmos 2369 Rocket 3.1 19:53:29 10° NNW 19:56:59 35° N 19:56:59 35° N
ALOS 3.1 19:58:18 10° S 20:02:50 50° W 20:07:23 10° NNW
SL-16 R/B 3.7 19:58:06 10° WSW 20:03:07 32° NW 20:06:55 16° N
Spot 2 Rocket 4.1 20:01:33 10° S 20:06:29 54° W 20:11:26 10° NNW
Cosmos 2026 Rocket 3.9 20:07:05 10° S 20:13:18 83° W 20:13:47 76° NNW
USA 229 DEB 3.9 20:08:43 10° SW 20:15:32 65° NW 20:17:13 50° N
USA 229 3.9 20:08:49 10° SW 20:15:37 66° NW 20:17:17 51° N
ATLAS 5 CENTAUR R/B 4.2 20:45:08 10° NNW 20:46:56 20° NNW 20:46:56 20° NNW
